{"data":{"norad_id":62321,"intl_designator":"2024-239W","name":"STARLINK-32645","alt_names":[],"object_type":"PAYLOAD","status":"ACTIVE","operator":null,"country":"US","launch_date":"2024-12-13","launch_site_code":"AFWTR","launch_vehicle":null,"mission":null,"orbit_class":"UNKNOWN","rcs_meters":null,"size_class":null,"mass_kg":null,"dimensions":null,"purposes":["comms"],"wikipedia_slug":null,"has_3d_model":false,"image_url":null,"decayed_at":null,"tle_current":{"epoch":"2026-05-24T19:47:08.813184Z","epoch_age_seconds":100969,"freshness":"FRESH","line1":"1 62321U 24239W   26144.82440756  .00028323  00000+0  96473-3 0  9996","line2":"2 62321  53.1567 187.2746 0000268 105.3221 254.7810 15.30200260 81227","mean_motion":15.3020026,"eccentricity":2.68e-5,"inclination_deg":53.1567,"raan_deg":187.2746,"arg_perigee_deg":105.3221,"mean_anomaly_deg":254.781,"bstar":0.00096473,"rev_number":8122,"period_min":94.105329716778,"perigee_km":475.03062329164,"apogee_km":475.39796292096,"semimajor_km":6853.3512931063,"source":"CELESTRAK","updated_at":"2026-05-25T13:38:19.651483Z"}}}